This is the latest recevied weather packets stored in our database for station/object K4KMJ. If no packets are shown the sender has not sent any weather packets the latest 10 day(s).
| Time | Temp. | Humidity | Pressure | Rain* | Wind** | Luminosity | Snow |
|---|---|---|---|---|---|---|---|
| 1777292242 | 23.33° C | 99% | 1017.1 hPa | 0 mm | - | 180 W/m² | - |
| 1777291939 | 23.33° C | 99% | 1017.2 hPa | 0 mm | - | 161 W/m² | - |
| 1777291635 | 22.22° C | 99% | 1017.1 hPa | 0 mm | - | 146 W/m² | - |
| 1777291332 | 22.22° C | 99% | 1016.9 hPa | 0 mm | - | 132 W/m² | - |
| 1777291024 | 22.22° C | 99% | 1017 hPa | 0 mm | - | 109 W/m² | - |
| 1777290720 | 21.67° C | 99% | 1016.8 hPa | 0 mm | - | 74 W/m² | - |
| 1777290416 | 21.11° C | 99% | 1017 hPa | 0 mm | - | 85 W/m² | - |
| 1777290111 | 20.56° C | 99% | 1016.8 hPa | 0 mm | - | 74 W/m² | - |
| 1777289809 | 20° C | 99% | 1016.9 hPa | 0 mm | - | 64 W/m² | - |
| 1777289505 | 20° C | 99% | 1016.5 hPa | 0 mm | - | 55 W/m² | - |
| 1777289201 | 20° C | 99% | 1016.5 hPa | 0 mm | - | 45 W/m² | - |
| 1777288897 | 20° C | 99% | 1016.6 hPa | 0 mm | - | 37 W/m² | - |
| 1777288594 | 19.44° C | 99% | 1016.7 hPa | 0 mm | - | 30 W/m² | - |
| 1777288291 | 19.44° C | 99% | 1016.1 hPa | 0 mm | - | 23 W/m² | - |
| 1777287981 | 18.89° C | 99% | 1016.2 hPa | 0 mm | - | 17 W/m² | - |
| 1777287678 | 18.89° C | 99% | 1016.2 hPa | 0 mm | - | 12 W/m² | - |
| 1777287374 | 18.89° C | 99% | 1016 hPa | 0 mm | - | 8 W/m² | - |
| 1777287070 | 18.89° C | 99% | 1016 hPa | 0 mm | - | 5 W/m² | - |
| 1777286767 | 18.89° C | 99% | 1015.5 hPa | 0 mm | - | 2 W/m² | - |
| 1777286465 | 18.89° C | 99% | 1015.8 hPa | 0 mm | - | 1 W/m² | - |
| 1777286162 | 18.89° C | 99% | 1015.6 hPa | 0 mm | - | 0 W/m² | - |
| 1777285859 | 18.89° C | 99% | 1015.6 hPa | 0 mm | - | 0 W/m² | - |
| 1777285557 | 18.89° C | 99% | 1015.5 hPa | 0 mm | - | 0 W/m² | - |
| 1777285255 | 18.89° C | 99% | 1015.4 hPa | 0 mm | - | 0 W/m² | - |
| 1777284952 | 18.89° C | 99% | 1015.4 hPa | 0 mm | - | 0 W/m² | - |
* Rain latest hour (hover to see other rain measurements)
** Current wind speed in m/s (hover to see current wind gust speed)